Weather in Kirkkonummi

Finland     60°06′58″N   24°27′52″E
temp.,
°C
wind,
m/s
gust,
m/s
humid.,
%
clouds,
%
prec.,
mm/h
press.,
hPa
HPBL,
m
6 march, sat
sat623:00−4nw47750 0.0 1019360
02:00−4w45720 0.0 1019224
05:00−3wsw7107154 0.0 1016701
08:00−1sw10157476 0.0 1012755
11:00−1wsw121695100 0.1 1007779
14:000wsw121782100 1.0 1003635
17:000wsw121883100 0.1 998589
20:00+1w101685100 0.1 996462
7 march, sun
sun723:00−1wnw7147399 1.0 9941357
02:00−4wnw12185476 1.1 9942588
05:00−4wnw11185052 0.1 9922918
08:00−5wnw12197256 0.1 9911744
11:00−3nw12177883 0.1 9921499
14:00−2nnw9146691 0.1 9941406
17:00−3n81268100 0.1 9981509
20:00−4n7117987 0.3 10031035
8 march, mon
mon823:00−5n8117797 0.0 1006916
02:00−7n8117798 0.0 1009758
05:00−8n7107999 0.0 1011631
08:00−8n687796 0.0 1014513
11:00−6n576397 0.0 1016506
14:00−4n454766 0.0 1017934
17:00−4n46521 0.0 10171272
20:00−5n456115 0.0 1019617
9 march, tue
tue923:00−6n11664 0.0 1019241
02:00−5s236343 0.0 1019362
05:00−4ssw6868100 0.0 1016933
08:00−2ssw101386100 1.0 1015748
11:00−1wsw5775100 0.4 1013470
14:00−1w5785100 0.5 1014435
17:00−5e161894100 2.3 1014683
20:00−6ene131690100 2.9 10171014
10 march, wed
wed1023:00−8ene121489100 0.4 1020862
02:00−9ene101386100 0.5 1022772
05:00−8e9117287 0.0 1023866
08:00−7ese10125751 0.0 1025970
11:00−7ese911580 0.0 1025834
14:00−6ese810600 0.0 1024863
17:00−6se910630 0.0 1023888
20:00−6se1012685 0.0 1022824